Location: Melbourne
(37.8170°S, 144.9670°E)
Time: 09:29:23
(UTC+10:00)

Explorer 11/Cluster Stage 4 - Visible Passes

Search period start: 01 August 2015 00:00
Search period end: 11 August 2015 00:00
Orbit: 468 x 1271 km, 28.8° (Epoch: 30 July)

Date Brightness Start Highest point End Pass type
(mag) Time Alt. Az. Time Alt. Az. Time Alt. Az.
01 Aug 9.1 05:03:34 11° NNW 05:08:51 22° NNE 05:14:08 10° ENE visible
01 Aug 8.5 06:50:54 10° NW 06:57:34 34° N 07:03:12 10° ENE visible
02 Aug 9.0 04:55:46 16° NNW 04:59:54 25° NNE 05:05:41 10° ENE visible
02 Aug 8.4 06:41:43 10° WNW 06:48:41 37° N 06:54:36 10° ENE visible
03 Aug 8.8 04:47:51 22° NNW 04:50:56 28° NNE 04:57:08 10° ENE visible
03 Aug 8.3 06:32:32 10° WNW 06:39:46 39° N 06:45:57 10° ENE visible
04 Aug 9.9 02:57:32 10° ENE 02:57:32 10° ENE 02:57:37 10° ENE visible
04 Aug 8.6 04:39:48 27° N 04:41:57 31° NNE 04:48:30 10° ENE visible
04 Aug 8.3 06:23:25 10° WNW 06:30:50 41° N 06:37:15 10° ENE visible
05 Aug 8.5 04:31:40 32° N 04:32:56 34° NNE 04:39:48 10° ENE visible
05 Aug 8.2 06:14:18 10° WNW 06:21:53 42° N 06:28:30 10° ENE visible
06 Aug 8.4 04:23:27 36° N 04:23:55 37° NNE 04:31:02 10° ENE visible
06 Aug 8.2 06:05:43 12° WNW 06:12:54 43° N 06:19:43 10° ENE visible
07 Aug 8.3 04:15:11 39° NNE 04:15:11 39° NNE 04:22:13 10° ENE visible
07 Aug 8.2 05:57:27 15° WNW 06:03:55 43° N 06:10:54 10° ENE visible
08 Aug 8.3 04:06:51 40° NNE 04:06:51 40° NNE 04:13:22 10° ENE visible
08 Aug 8.2 05:49:07 18° WNW 05:54:54 43° N 06:02:02 10° ENE visible
09 Aug 8.4 03:58:31 39° NE 03:58:31 39° NE 04:04:28 10° ENE visible
09 Aug 8.2 05:40:47 21° WNW 05:45:53 42° N 05:53:07 10° ENE visible
10 Aug 8.6 03:50:09 36° NE 03:50:09 36° NE 03:55:31 10° ENE visible
10 Aug 8.2 05:32:25 24° WNW 05:36:50 41° N 05:44:09 10° ENE visible
